Location: *
(51.1248°S, 108.4023°W)
Time: 11:56:04
(UTC+00:00)

USA 281 - Pass Details

Date: 27 October 2021
Orbit: 1078 x 1081 km, 106.0° (Epoch: 25 November)

Event Time Altitude Azimuth Distance (km) Brightness Sun altitude
Exits shadow 02:33:20 - 39° (NE) 3,733 5.5 -4.3°
Reaches altitude 10° 02:35:28 10° 40° (NE) 2,930 4.9 -4.6°
Maximum altitude 02:42:01 72° 122° (ESE) 1,150 3.3 -5.6°
Drops below altitude 10° 02:48:39 10° 204° (SSW) 2,959 6.4 -6.5°
Sets 02:51:11 0° 206° (SSW) 3,921 7.2 -6.8°
